{"data":{"norad_id":69904,"epoch":"2026-09-19T04:46:37.641792Z","epoch_age_seconds":130240,"freshness":"FRESH","line1":"1 69904U 26156AM  26262.19904678  .00000974  00000+0  10234-3 0  9992","line2":"2 69904  97.7428 161.3758 0004582 260.1925  99.8776 14.91708845 10905","mean_motion":14.91708845,"eccentricity":0.0004582,"inclination_deg":97.7428,"raan_deg":161.3758,"arg_perigee_deg":260.1925,"mean_anomaly_deg":99.8776,"bstar":0.00010234,"rev_number":1090,"period_min":96.533583267719,"perigee_km":589.41297006368,"apogee_km":595.80095983316,"semimajor_km":6970.7439649484,"source":"CELESTRAK","updated_at":"2026-09-20T09:00:25.172477Z"}}